Regional Weather Roundup
Issued by NWS Wakefield, VA

Home | Current Version | Previous Version | Graphics & Text | Print | Product List | Glossary On
Versions: 1 2 3 4 5 6 7 8 9 10 11 12 13 14 15 16 17 18 19 20 21 22 23 24 25 26 27 28 29 30 31 32 33 34 35 36 37 38 39 40 41 42 43 44 45 46 47 48 49 50
000
ASUS41 KAKQ 270210
RWRAKQ

REGIONAL WEATHER ROUNDUP
NATIONAL WEATHER SERVICE WAKEFIELD VA
900 PM EST THU FEB 26 2015

Note: "fair" indicates few or no clouds below 12,000 feet with no
significant weather and/or obstructions to visibility. * = Denotes
station may not report precipitation (e.g., rain,snow,etc.),
thunder or fog.

VAZ042-051-052>054-056-270300-
NORTHERN VIRGINIA

CITY           SKY/WX    TMP DP  RH WIND       PRES   REMARKS
WASH NATIONAL  CLOUDY    34  24  67 SE7       30.11R
DULLES         CLOUDY    28  22  78 CALM      30.09R
FORT BELVOIR   NOT AVBL
QUANTICO       MOCLDY    31  24  75 NW3       30.12R
FREDERICKSBRG* PTCLDY    31  27  86 E5        30.10S
STAFFORD*      MOCLDY    28  28 100 CALM      30.13S
WARRENTON      MOCLDY    28  28 100 CALM      30.08S
CULPEPER*      CLOUDY    30  27  86 CALM      30.09S
MANASSAS*      MOCLDY    28  27  93 CALM      30.10R
LEESBURG*      CLOUDY    32  28  86 CALM      30.10R
WINCHESTER     CLOUDY    32  23  69 CALM      30.07R
FRONT ROYAL*   CLOUDY    30  25  80 CALM      30.05S
LURAY*         CLOUDY    32  28  86 CALM      30.05R
$$

VAZ048-049-060>072-079>083-270300-
CENTRAL AND SOUTH CENTRAL VIRGINIA

CITY           SKY/WX    TMP DP  RH WIND       PRES   REMARKS
RICHMOND       CLEAR     29  26  89 CALM      30.10R FOG
CHESTERFIELD*  FAIR      27  16  63 CALM      30.11R
PETERSBURG*    FOG       26  26  98 CALM      30.11R VSB 1/4
HANOVER        CLEAR     28  25  88 CALM      30.12R FOG
TAPPAHANNOCK*  CLEAR     29  26  89 CALM      30.12R FOG
QUINTON*         N/A     28  28  98 W3        30.11R VSB 1
CHARLOTTSVILLE CLOUDY    34  24  67 CALM      30.07R
GORDONSVILLE*  FAIR      28  26  91 CALM      30.08R
ORANGE*        CLOUDY    30  28  93 CALM      30.09S
LOUISA*        MOCLDY    28  27  93 CALM      30.07S FOG
BUMPASS*       FAIR      28  26  95 CALM      30.09R
FARMVILLE*     PTCLDY    29  29 100 CALM      30.08R FOG
CREWE*         CLOUDY    28  27  96 CALM      30.08S
FORT PICKETT*  CLOUDY    27  27  98 MISG      30.08S VSB 1/4
CHASE CITY*    MOCLDY    28  28 100 CALM      30.09R
CLARKSVILLE*   FAIR      28  28 100 CALM      30.08S
SOUTH HILL*    CLEAR     27  27  99 CALM      30.14S
LAWRENCEVILLE* FAIR      30  30 100 CALM      30.09R
EMPORIA*         N/A     30  30 100 CALM      30.12R FOG
$$

VAZ088>098-270300-
SOUTHEAST VIRGINIA

CITY           SKY/WX    TMP DP  RH WIND       PRES   REMARKS
NORFOLK        CLOUDY    31  26  82 N7        30.09S
VIRGINIA BEACH CLOUDY    33  31  92 N9        30.09S
NORFOLK NAVAL  CLOUDY    34  27  75 NE7       30.11S
WEST POINT*    CLEAR     31  28  87 CALM      30.13R
SALUDA*        FAIR      27  26  96 CALM      30.11R
NEWPORT NEWS   CLOUDY    33  28  81 CALM      30.10S
LANGLEY AFB    NOT AVBL
FORT EUSTIS    NOT AVBL
WILLIAMSBURG*  PTCLDY    34  32  93 CALM      30.11R
HR EXEC AP*    CLOUDY    30  27  86 CALM      30.12S
FRANKLIN*      CLOUDY    32  30  91 NE3       30.11R
WAKEFIELD      PTCLDY    31  28  89 CALM      30.10S FOG
$$

VAZ020-022-025-037-045-270300-
WEST CENTRAL AND SOUTHWEST VIRGINIA

CITY           SKY/WX    TMP DP  RH WIND       PRES   REMARKS
STAUNTON*      CLOUDY    33  24  70 CALM      30.05S
WAYNESBORO*    CLOUDY    32  26  80 SE3       30.01S
HOT SPRINGS VA CLOUDY    24  21  86 W9        29.91R
LYNCHBURG      CLOUDY    30  28  92 CALM      30.07R
DANVILLE       CLOUDY    29  26  89 CALM      30.09R FOG
SOUTH BOSTON*  CLOUDY    29  28  95 CALM      30.09S VSB 1/4
MARTINSVILLE   CLOUDY    33  33 100 CALM      30.09R
ROANOKE        CLOUDY    35  28  75 CALM      30.07R
BLACKSBURG     CLOUDY    31  23  72 W8        30.05R
DUBLIN*        MOCLDY    31  24  74 W7        30.04R
MARION*        CLOUDY    31  23  73 W7        30.04R
HILLSVILLE*    CLOUDY    30  25  83 NW6       30.00R
RICHLANDS*     MOCLDY    27  23  85 CALM      30.01S
WISE*          MOCLDY    30  21  69 NW7       30.05R
ABINGDON*      CLOUDY    33  29  83 W5        30.06R
$$

MDZ021>025-VAZ099-100-270300-
SOUTHERN MARYLAND AND THE DELMARVA PENINSULA

CITY           SKY/WX    TMP DP  RH WIND       PRES   REMARKS
PATUXENT RIVER PTCLDY    24  20  84 CALM      30.11R
BAY BRIDGE APT   N/A     30  21  69 CALM      30.12R
LEONARDTOWN    CLEAR     27  23  86 CALM      30.12R
DOVER          NOT AVBL
GEORGETOWN     CLEAR     24  18  77 CALM      30.12R
EASTON         CLEAR     30  23  74 CALM      30.15R
CAMBRIDGE      CLEAR     28  23  80 CALM      30.11R
SALISBURY      CLEAR     26  20  77 CALM      30.11R
OCEAN CITY     CLEAR     21  19  92 NW3       30.11R
WALLOPS ISLAND PTCLDY    29  23  78 NE3       30.11R
ACCOMACK*      CLOUDY    30  27  86 CALM      30.09F
$$

NCZ012>017-030>032-270300-
NORTH CENTRAL AND EASTERN NORTH CAROLINA

CITY           SKY/WX    TMP DP  RH WIND       PRES   REMARKS
ROANOKE RAPIDS FAIR      32  32 100 CALM      30.09F
RALEIGH        MOCLDY    29  27  92 CALM      30.09R FOG
ELIZABETH CITY NOT AVBL
AHOSKIE*       CLOUDY    32  31  94 N3        30.11R
EDENTON*       MIX PCPN  33  30  90 N6        30.09S
CURRITUCK*     CLOUDY    32  29  89 N9        30.09S
KILL DEVIL HLS CLOUDY    33  30  91 N13G20    30.05R WCI  23
MANTEO         CLOUDY    32  30  93 N18G26    30.07R WCI  20
CAPE HATTERAS  CLOUDY    33  32  96 N13G32    30.04R WCI  24
TARBORO*       CLOUDY    34  32  93 CALM      30.11S
GOLDSBORO      NOT AVBL
WASHINGTON     CLOUDY    33  32  94 N8        30.10R
GREENVILLE     CLOUDY    34  32  93 N3        30.11S
NEW BERN       CLOUDY    36  31  82 N8        30.09R
WILMINGTON     CLOUDY    37  33  85 N5        30.10R
$$

VAZ048-270300-
ELSEWHERE

CITY           SKY/WX    TMP DP  RH WIND       PRES   REMARKS
HARRISBURG PA  CLOUDY    27  17  66 NW8       30.10R
BALTIMORE      CLOUDY    27  21  78 CALM      30.11R
ANNAPOLIS      MOCLDY    28  22  78 CALM      30.12R
ANDREWS AFB    NOT AVBL
PHILADELPHIA   MOCLDY    29  15  56 CALM      30.13R
HENDERSON NC   CLEAR     28  27  94 CALM      30.09R FOG
GREENSBORO     CLOUDY    31  29  92 CALM      30.06R FOG
ROCKY MOUNT    CLOUDY    34  33  96 CALM      30.09S FOG
$$

VAZ100-270300-
MARINE

STATION/POSITION TIME  TEMP    WIND        PRES    WAVE   SWELL
                       AIR SEA DIR/SP/G            HT/PER HT/PER
                 (UTC) (F)     (DEG/KT/KT) (MB)    (FT/S) (FT/S)
BRANDYWINE LGT   0200           70/  4/  4   N/A
CAPE MAY NJ      0200   25 32   CALM  /  1 1019.2R
LEWES DE         0200   27 30     CALM     1019.6R
15NM E FENWICK I 0200   31 35              1018.7R   8/ 9
OCEAN-CITY-INLET 0200          330/  4/  5   N/A
WACHAPREAGUE VA  0200   29 32  360/  2/  3 1019.0R
THOMAS POINT MD  0200   30 31   70/  3/  4 1021.0R
COVE POINT MD    0200   29      CALM  /  2 1019.4R
SOLOMONS ISLAND  0200      32                N/A
BISHOPS HEAD MD  0200   29 32   10/  2/  3 1019.0R
CAMBRIDGE MD     0200   27 32  130/  1/  1 1019.5R
LEWISETTA VA     0200             CALM     1019.4R
RAPPAHANNOCK LGT 0200           40/  6/  7 1019.5S
STINGRAY PT      0200   31 32   20/  4/  4   N/A     1
YORK RVR RNG VA  0200   31      40/  5/  6 1018.5S
YORKTOWN VA      0200   32 32   70/  2/  2 1018.9S
DOMINION TERM VA 0200   32      20/  4/  5 1019.1S
KIPTOPEKE VA     0200           50/  4/  6   N/A
CHES BAY BRIDGE  0200           10/  6/ 10   N/A
CAPE HENRY VA    0200   31      20/ 12/ 14 1017.7S
CHESAPEAKE LGHT  0100   32      10/ 21/ 23 1018.6R
WILLOUBY STN VA  0200           30/  6/  6 1019.4F
S CRANEY ISL VA  0200           30/  4/  5 1019.0S
CAPE HENRY BUOY  0200      36                N/A     7/ 9   2/11
1ST LANDING BUOY 0200   32 33   40/  8/ 14 1018.8R   5/ 5
OFFSHORE WE BUOY 0200      38                N/A    10/ 9   8/ 9
64NM E OF VA BCH 0200   42 58  360/ 27/ 33 1015.6R  13/11  10/11
DUCK PIER NC     0200   33 34   10/ 24/ 26 1016.8R
44100 DUCK FRF   0100      37                N/A    11/ 9   5/11
44056 DUCK FRF   0200      35                N/A     9/11   3/11
OREGON INLET NC  0200   34 37  350/ 17/ 23 1017.4R
HATTERAS NC      0200          360/ 22/ 27   N/A
CAPE LOOKOUT NC  0100   36     350/ 19/ 23 1016.9R
$$


USA.gov is the U.S. government's official web portal to all federal, state and local government web resources and services.